Regional Weather Roundup
Issued by NWS Sioux Falls, SD

Home | Current Version | Previous Version | Graphics & Text | Print | Product List | Glossary Off
Versions: 1 2 3 4 5 6 7 8 9 10 11 12 13 14 15 16 17 18 19 20 21 22 23 24 25 26 27 28 29 30 31 32 33 34 35 36 37 38 39 40 41 42 43 44 45 46 47 48 49 50

000
ASUS43 KFSD 300402
RWRFSD

WEATHER ROUNDUP FOR SE SOUTH DAKOTA/SW MINNESOTA/NW IOWA
NATIONAL WEATHER SERVICE SIOUX FALLS SD
1100 PM CDT FRI AUG 29 2014

NOTE: "FAIR" INDICATES FEW OR NO CLOUDS BELOW 12,000 FEET WITH NO
SIGNIFICANT WEATHER AND OR OBSTRUCTIONS TO VISIBILITY.


SDZ038>040-050-052>070-300500-
SOUTHEAST SOUTH DAKOTA

CITY           SKY/WX    TMP DP  RH WIND       PRES   REMARKS
CHAMBERLAIN    PTCLDY    64  60  86 N3        29.93R
HURON          MOCLDY    65  60  84 N13G21    29.88R
MADISON        FAIR      66  66 100 NW8       29.85R
MITCHELL       CLOUDY    68  64  87 NW12      29.87R
SIOUX FALLS    MOCLDY    67  65  93 CALM      29.82R
WINNER         FAIR      63  56  78 NW6       29.96R
YANKTON        CLOUDY    66  64  94 MISG      29.84R
$$

MNZ071-072-080-081-089-090-097-098-300500-
SOUTHWEST MINNESOTA

CITY           SKY/WX    TMP DP  RH WIND       PRES   REMARKS
FAIRMONT       CLOUDY    64  63  94 NW3       29.81R
JACKSON        DRIZZLE   66  63  88 CALM      29.83S
LUVERNE        MOCLDY    64  63  94 NW5       29.83R
MARSHALL       CLOUDY    66  63  88 NW3       29.80S
MONTEVIDEO     MOCLDY    66  66 100 N3        29.82R
PIPESTONE      MOCLDY    66  64  94 CALM      29.84R FOG
REDWOOD FALLS  CLOUDY    65  64  97 CALM      29.79S
TRACY          CLOUDY    67  66  96 CALM      29.82R
WINDOM         CLOUDY    66  64  94 CALM      29.82R
WORTHINGTON    CLOUDY    66  64  94 CALM      29.84R
$$

IAZ001>003-012>014-020>022-031-032-NEZ013-014-SDZ071-300500-
NORTHWEST IOWA

CITY           SKY/WX    TMP DP  RH WIND       PRES   REMARKS
CHEROKEE       CLOUDY    66  66 100 CALM      29.82S
DENISON        CLOUDY    66  66 100 CALM      29.81S
ESTHERVILLE    CLOUDY    67  66  97 N3        29.81R FOG
LE MARS          N/A     66  64  94 CALM      29.82S
ORANGE CITY    MOCLDY    66  64  94 CALM      29.83R
SHELDON        CLOUDY    63  63 100 CALM      29.82R
SIOUX CITY     PTCLDY    66  64  93 SW6       29.82S
SPENCER        CLOUDY    67  65  93 W3        29.82R
STORM LAKE     DRIZZLE   66  66 100 SW3       29.83R
$$

ABBREVIATIONS USED IN REMARKS
   TC - TEMPERATURE IN CELSIUS
  WCI - WIND CHILL INDEX
   HX - HEAT INDEX
  VSB - VISIBILITY




USA.gov is the U.S. government's official web portal to all federal, state and local government web resources and services.